Wind_Speed
6 8 3 2 4 5 3 3 2 3 2 1 2 3 4 4 4 5 5 5 7 5 5 4 2 3 2 3 4 3 3 5 6 6 6 7 6 7 9 9 9 8 8
4 5 4 5 4 5 4 4 2 4 4 2 4 5 6 6 6 7 4 4 6 6 5 3 2 2 1 3 3 2 4 5 6 6 6 5 6 7 9 10 9 7 7
3 4 4 3 4 5 5 4 6 5 2 2 4 5 6 8 6 5 2 5 7 6 6 4 2 1 1 3 4 4 5 4 5 6 6 6 7 9 10 11 9 8 7
5 3 4 4 4 5 5 6 4 2 3 2 3 5 6 4 5 4 2 2 7 7 6 4 2 1 3 5 4 5 5 4 3 5 7 6 7 9 9 9 9 9 8
3 4 4 4 3 4 5 6 5 5 4 3 6 5 3 5 6 7 3 2 3 6 6 3 2 4 5 6 4 4 5 3 4 5 8 8 5 10 10 8 8 8 9
2 3 5 3 4 5 7 6 5 3 2 2 5 6 1 5 10 7 5 3 1 2 3 2 3 5 6 6 2 3 3 2 3 1 11 9 6 7 9 9 7 8 9
4 3 2 3 3 5 6 4 1 1 2 2 6 7 2 3 8 10 8 5 4 3 1 1 3 5 7 6 2 2 3 1 2 6 8 5 7 7 9 8 9 8 9
6 5 3 1 2 2 2 2 3 3 3 5 4 6 4 4 11 11 9 6 6 5 3 2 3 3 5 2 2 4 5 7 4 8 11 9 8 9 11 11 9 8 9
6 4 3 1 2 3 3 3 3 5 5 7 7 4 3 3 11 8 6 7 6 6 4 3 4 5 3 3 4 5 3 5 9 14 7 8 6 9 10 10 10 8 7
6 5 2 1 2 4 5 6 5 6 7 7 8 6 3 3 11 8 7 5 5 5 6 6 6 6 9 9 6 5 6 4 11 6 7 6 10 10 11 9 9 9 9
5 4 4 4 3 5 5 6 6 6 8 11 8 4 5 7 14 6 4 5 4 4 5 8 9 10 10 8 7 5 6 5 6 9 9 10 11 11 11 9 8 8 11
3 4 5 5 3 4 5 7 8 6 7 11 5 2 1 8 10 12 5 5 7 5 6 8 11 9 8 7 11 5 4 6 6 8 10 11 10 11 10 10 9 9 9
2 0 2 3 4 5 7 8 10 14 8 9 7 3 8 4 8 8 5 4 7 8 8 9 11 8 10 9 8 5 6 4 7 11 12 11 11 9 10 11 11 13 11
4 2 1 3 3 4 7 8 9 5 8 7 2 1 4 9 11 11 8 6 8 8 8 8 7 7 10 7 8 9 3 9 11 7 10 11 11 10 10 12 13 12 13
6 5 5 3 6 5 5 6 9 11 7 1 2 6 5 4 4 10 10 8 9 9 8 7 8 7 10 7 7 5 6 11 8 10 11 12 10 9 9 13 12 10 10
7 4 4 2 5 5 5 5 5 7 7 3 3 5 6 8 6 11 11 9 8 9 10 8 7 7 6 7 8 9 7 9 10 10 9 11 9 9 10 11 10 11 11
10 10 7 6 3 3 1 1 2 2 6 5 5 7 3 7 10 8 12 9 7 7 8 10 6 5 4 4 8 7 7 9 11 11 10 11 11 9 9 9 10 9 10
21 17 12 8 6 11 1 3 8 10 8 6 5 8 9 2 9 10 10 10 8 6 7 7 6 4 4 6 5 8 9 11 9 10 10 10 10 10 8 8 8 8 9
22 22 14 10 10 13 12 7 10 10 11 7 9 10 9 5 10 14 13 14 10 8 7 6 8 7 5 7 8 9 11 10 9 10 10 9 7 9 8 7 6 8 8
22 26 21 13 13 14 15 10 10 14 15 7 11 11 6 8 8 14 13 14 10 10 10 7 8 8 6 9 7 7 8 9 8 9 9 8 6 6 7 8 7 7 9
18 18 22 23 20 15 14 12 10 10 14 10 7 8 8 12 6 11 9 12 9 10 10 9 8 8 8 7 8 7 6 8 8 9 7 6 6 7 7 6 7 7 7
16 15 16 18 19 23 16 14 13 11 11 9 9 8 9 10 5 7 8 9 12 10 14 15 17 13 11 10 10 9 9 9 9 9 9 7 7 7 5 7 9 9 10
17 16 14 14 16 18 17 17 15 11 10 10 11 11 11 9 7 2 4 7 10 10 12 17 15 18 15 13 11 10 10 11 11 11 11 10 9 7 8 8 10 10 10
12 12 13 13 13 14 14 15 15 14 14 12 13 12 12 9 6 3 3 6 13 15 13 13 14 17 26 24 14 14 13 12 12 12 12 12 12 11 11 11 12 13 12
17 15 15 12 12 13 13 12 13 15 14 15 13 12 13 12 10 8 8 6 8 8 14 12 11 10 18 19 22 20 15 15 16 13 13 12 14 14 13 12 12 12 12
14 20 14 17 15 17 17 17 18 16 15 16 15 14 14 13 11 10 10 8 7 7 9 12 13 9 14 18 23 23 19 17 16 14 14 16 15 14 12 13 11 11 11
Wind_Direction
117 139 107 77 103 140 144 116 141 165 141 137 254 250 266 261 274 293 305 324 332 334 338 352 29 70 122 177 174 151 136 117 116 113 95 86 84 96 95 96 93 93 88
114 141 127 130 107 132 148 138 160 167 135 180 239 244 256 253 257 278 286 316 326 315 331 342 20 57 179 192 162 143 158 149 132 121 110 103 107 107 103 110 98 83 83
74 106 119 136 128 136 167 162 137 131 90 31 288 266 274 259 263 319 306 314 324 321 335 337 11 71 234 211 177 157 156 155 135 131 118 112 119 127 115 117 113 96 81
59 98 101 107 129 146 162 164 146 123 50 85 18 272 294 289 288 284 253 315 334 327 334 331 345 199 213 220 198 143 148 143 164 155 131 122 129 131 122 130 117 110 97
35 65 83 92 111 131 167 148 124 114 106 69 3 358 325 188 217 241 242 293 326 318 326 333 238 211 219 230 194 169 144 182 200 186 157 122 140 139 131 130 127 124 111
63 88 110 127 118 131 135 129 108 156 95 305 325 322 318 207 179 199 224 218 208 289 325 338 249 234 242 248 206 184 131 252 322 189 211 124 129 137 133 133 140 136 124
39 41 105 145 131 138 163 210 237 69 43 293 312 296 295 223 197 177 203 199 185 192 232 273 248 256 261 252 219 173 145 99 161 101 163 171 157 145 144 139 144 140 123
37 32 24 179 180 185 210 247 289 299 304 295 294 290 330 267 216 181 183 190 183 166 187 214 234 251 258 278 135 151 164 163 156 143 137 166 164 156 150 146 146 145 128
29 27 8 288 241 242 257 280 283 276 282 295 306 319 310 289 195 190 179 184 193 158 178 157 183 201 208 152 134 104 151 164 130 122 115 124 126 149 145 144 143 145 119
49 46 0 295 260 263 263 276 273 271 274 284 301 318 248 215 181 162 167 183 192 184 165 164 173 148 139 141 139 97 101 67 120 137 117 112 134 143 148 153 137 129 115
44 34 30 5 320 277 276 283 297 298 295 280 263 294 249 230 196 198 161 166 193 189 178 179 170 152 141 140 113 118 102 108 134 113 112 124 140 135 137 153 133 122 117
51 28 28 19 343 322 302 304 304 316 317 332 229 269 164 176 202 222 233 201 173 175 182 193 183 171 175 133 115 116 149 127 120 125 126 118 133 129 138 128 130 124 117
359 283 21 23 341 1 342 331 348 336 353 308 230 239 197 188 193 209 228 219 175 168 183 198 192 184 174 119 118 164 157 93 127 124 125 132 136 134 132 126 126 124 131
11 14 199 279 314 18 20 355 11 293 345 2 102 110 190 205 211 234 224 197 184 181 189 197 179 197 179 185 180 164 218 124 131 141 118 126 132 144 142 130 123 128 125
42 11 17 344 315 351 26 25 22 19 23 54 342 14 203 210 197 224 227 215 192 189 190 200 201 197 238 193 185 156 192 144 128 135 133 142 149 147 151 133 138 141 128
81 65 45 25 324 3 3 10 36 9 28 76 5 5 17 220 220 232 226 216 192 182 187 201 206 175 187 181 173 169 147 146 147 158 149 141 145 151 148 139 151 151 135
64 74 58 24 8 5 46 322 88 58 51 40 19 1 348 209 214 254 214 213 197 179 182 206 229 184 162 165 165 161 169 155 165 162 165 154 158 163 161 161 161 158 142
34 33 36 43 42 10 108 17 27 21 23 352 341 356 26 206 247 235 213 216 219 207 204 203 214 221 174 178 165 170 177 172 161 174 170 166 165 163 176 176 159 153 145
34 29 23 34 45 46 48 40 29 18 8 345 354 350 347 319 249 216 221 217 221 227 230 207 200 200 205 190 190 177 178 170 179 187 167 169 181 164 170 170 170 157 152
42 37 44 45 41 48 48 48 28 35 9 351 3 8 13 328 268 212 218 228 228 241 228 210 195 200 193 198 188 199 186 184 182 194 176 176 199 175 169 167 175 180 168
41 39 51 55 38 35 45 44 53 25 19 34 14 26 18 10 180 188 214 213 221 216 208 203 201 217 195 206 201 208 218 205 198 188 197 186 185 208 186 173 178 188 165
26 40 44 44 43 43 44 38 32 29 18 7 6 11 30 44 109 193 186 208 215 213 211 208 210 213 219 210 218 225 219 224 208 198 206 195 198 204 199 182 182 179 172
3 2 40 34 37 38 36 37 35 17 357 354 357 7 13 30 106 101 238 241 213 230 226 226 237 213 207 216 221 236 226 224 221 212 206 205 218 204 211 196 182 189 183
345 356 6 36 32 31 30 20 21 20 17 4 356 358 2 1 355 340 264 219 218 242 216 224 239 233 223 213 214 233 220 225 230 227 220 218 223 226 216 217 203 198 194
318 337 348 2 15 16 10 8 10 10 14 7 355 347 341 339 339 325 318 304 235 205 226 228 239 268 221 228 206 222 229 221 234 233 236 229 227 220 214 217 219 222 201
321 325 334 333 351 0 352 350 348 354 352 355 353 344 336 321 315 316 314 314 295 249 255 247 229 244 204 216 205 220 230 223 229 220 220 224 216 216 215 213 214 202 193
Height
5899 5898 5897 5898 5898 5899 5900 5899 5900 5900 5900 5900 5901 5900 5900 5900 5899 5898 5898 5897 5896 5895 5894 5894 5894 5893 5892 5892 5892 5893 5894 5893 5893 5894 5893 5893 5895 5896 5895 5897 5900 5901 5901
5899 5899 5898 5898 5898 5898 5899 5899 5900 5901 5901 5900 5900 5900 5899 5899 5899 5898 5897 5898 5897 5895 5895 5895 5895 5893 5892 5891 5892 5894 5893 5893 5893 5892 5893 5894 5894 5896 5897 5897 5900 5901 5902
5899 5899 5898 5899 5898 5898 5898 5898 5899 5901 5901 5900 5899 5899 5898 5897 5897 5897 5897 5897 5896 5895 5895 5896 5896 5894 5893 5893 5893 5893 5894 5893 5894 5893 5893 5895 5895 5896 5897 5898 5900 5901 5902
5899 5899 5899 5898 5899 5899 5899 5900 5900 5900 5900 5899 5898 5898 5896 5895 5896 5897 5896 5895 5895 5896 5896 5897 5896 5894 5893 5893 5893 5893 5893 5894 5895 5896 5895 5896 5897 5897 5898 5898 5901 5901 5902
5898 5897 5898 5898 5899 5899 5900 5901 5900 5901 5900 5899 5898 5897 5895 5893 5894 5896 5896 5894 5895 5896 5897 5897 5895 5894 5893 5892 5894 5893 5894 5894 5895 5896 5896 5896 5899 5898 5898 5899 5901 5902 5902
5898 5897 5897 5898 5898 5899 5900 5900 5901 5901 5900 5900 5898 5897 5895 5894 5893 5894 5895 5894 5895 5896 5895 5896 5894 5893 5892 5892 5894 5893 5894 5893 5893 5894 5898 5897 5900 5899 5898 5899 5902 5902 5901
5898 5898 5898 5898 5898 5899 5899 5899 5900 5900 5900 5900 5897 5896 5894 5894 5892 5892 5894 5895 5895 5895 5894 5895 5894 5895 5893 5893 5894 5894 5894 5893 5894 5892 5895 5897 5899 5899 5898 5900 5902 5902 5901
5898 5898 5898 5898 5898 5899 5900 5900 5900 5900 5900 5899 5898 5897 5895 5893 5892 5892 5893 5895 5895 5894 5894 5894 5895 5896 5894 5893 5893 5893 5893 5892 5892 5892 5895 5896 5897 5898 5898 5900 5902 5903 5901
5899 5899 5898 5898 5898 5899 5899 5899 5899 5899 5899 5898 5897 5896 5895 5893 5892 5893 5894 5895 5895 5893 5893 5894 5895 5895 5893 5892 5892 5892 5894 5894 5895 5895 5896 5896 5896 5897 5898 5901 5902 5902 5902
5899 5898 5898 5898 5897 5898 5898 5897 5897 5897 5898 5897 5896 5895 5894 5894 5894 5893 5895 5896 5896 5894 5893 5894 5896 5895 5894 5894 5894 5894 5895 5895 5894 5895 5897 5896 5896 5899 5898 5902 5902 5903 5903
5900 5898 5898 5897 5897 5897 5896 5896 5897 5897 5897 5896 5895 5894 5893 5893 5894 5894 5896 5896 5896 5896 5895 5895 5897 5897 5896 5896 5897 5896 5895 5896 5896 5897 5897 5898 5900 5900 5900 5902 5903 5904 5904
5899 5898 5898 5897 5896 5896 5896 5896 5897 5897 5896 5894 5893 5893 5892 5892 5894 5895 5896 5897 5896 5896 5895 5895 5898 5896 5897 5898 5898 5896 5894 5896 5896 5896 5897 5898 5901 5901 5901 5901 5903 5905 5905
5898 5897 5897 5897 5896 5897 5897 5897 5898 5898 5896 5894 5892 5891 5891 5892 5894 5896 5897 5897 5896 5896 5895 5894 5897 5898 5898 5899 5896 5894 5897 5897 5898 5896 5897 5899 5902 5904 5902 5902 5904 5905 5906
5896 5897 5898 5896 5896 5897 5897 5897 5896 5896 5895 5894 5894 5892 5891 5891 5893 5896 5897 5897 5896 5896 5895 5895 5898 5899 5899 5899 5896 5899 5898 5897 5897 5897 5896 5899 5902 5905 5905 5903 5905 5908 5907
5897 5896 5896 5896 5895 5896 5896 5896 5894 5895 5893 5894 5895 5893 5891 5891 5892 5895 5896 5896 5895 5896 5896 5895 5897 5899 5898 5898 5897 5898 5901 5902 5901 5901 5899 5901 5905 5906 5907 5904 5906 5909 5908
5902 5900 5897 5897 5897 5897 5896 5896 5895 5895 5895 5894 5894 5892 5891 5890 5892 5894 5894 5895 5894 5895 5896 5895 5895 5898 5900 5898 5898 5900 5901 5902 5902 5902 5903 5903 5906 5907 5906 5905 5907 5909 5908
5904 5901 5898 5897 5896 5898 5897 5897 5896 5894 5894 5893 5892 5891 5888 5888 5891 5893 5893 5894 5894 5895 5895 5895 5896 5898 5899 5899 5899 5900 5902 5902 5902 5903 5904 5903 5904 5906 5907 5907 5908 5909 5908
5905 5901 5897 5896 5897 5896 5894 5894 5893 5892 5892 5892 5890 5890 5888 5889 5890 5891 5892 5894 5894 5895 5895 5895 5896 5898 5897 5899 5899 5901 5902 5901 5902 5904 5905 5906 5906 5905 5908 5909 5908 5908 5907
5905 5903 5902 5899 5896 5894 5893 5891 5892 5892 5892 5891 5889 5888 5888 5889 5889 5889 5891 5892 5893 5894 5895 5894 5895 5897 5899 5899 5900 5901 5901 5902 5904 5905 5904 5905 5906 5905 5907 5908 5908 5906 5906
5909 5906 5902 5902 5900 5896 5891 5893 5891 5891 5891 5889 5888 5887 5887 5886 5884 5886 5889 5891 5892 5893 5894 5894 5894 5895 5897 5898 5899 5901 5901 5902 5903 5905 5904 5904 5906 5906 5905 5905 5906 5906 5905
5911 5909 5905 5903 5901 5899 5897 5894 5894 5893 5891 5889 5889 5888 5887 5883 5881 5883 5885 5886 5888 5890 5891 5893 5894 5894 5895 5896 5897 5899 5900 5902 5903 5903 5902 5902 5905 5906 5905 5904 5905 5906 5906
5912 5910 5907 5903 5901 5902 5899 5896 5895 5894 5893 5892 5890 5889 5887 5885 5883 5884 5885 5885 5887 5887 5888 5889 5891 5891 5892 5895 5896 5898 5898 5900 5900 5901 5901 5902 5903 5905 5904 5904 5904 5906 5906
5914 5914 5907 5905 5903 5902 5899 5897 5894 5892 5893 5892 5890 5889 5887 5885 5884 5884 5884 5885 5885 5886 5887 5887 5887 5888 5890 5892 5894 5896 5898 5899 5899 5900 5901 5901 5901 5903 5905 5905 5905 5906 5907
5911 5911 5909 5906 5903 5901 5900 5897 5894 5892 5891 5890 5890 5887 5886 5886 5885 5883 5882 5882 5882 5883 5884 5884 5884 5885 5887 5889 5892 5895 5896 5898 5899 5899 5900 5900 5901 5901 5903 5904 5905 5906 5907
5911 5910 5907 5905 5903 5900 5899 5896 5893 5891 5890 5889 5888 5886 5885 5885 5885 5884 5884 5883 5882 5881 5882 5882 5881 5880 5880 5883 5887 5891 5894 5896 5897 5897 5898 5899 5900 5901 5901 5904 5906 5907 5907
5910 5908 5903 5901 5899 5897 5898 5895 5893 5891 5889 5887 5886 5884 5883 5882 5881 5881 5882 5883 5883 5882 5881 5880 5879 5878 5878 5880 5883 5887 5889 5892 5894 5894 5895 5897 5898 5899 5901 5903 5905 5907 5908